FW2430 Weather Reports


Display with metric or nautical units.
time (UTC)temp
F
wind
direction
speed
MPH
gust
MPH
rain 1hr
in
rain 24hr
in
rain mn
in
humidity
%
barometer
mb
20260506043131 48 265 0.0 0.0 0.09 1.07 0.04 95 1009.1
20260506041558 49 265 0.0 0.0 0.10 1.05 0.02 94 1009.1
20260506040136 49 265 0.0 0.0 0.12 1.04 0.01 94 1009.1
20260506034626 49 265 0.0 0.0 0.15 1.02 1.02 95 1009.1
20260506033016 49 299 0.0 0.0 0.16 0.98 0.98 94 1008.8
20260506031608 49 284 0.0 0.0 0.17 0.95 0.95 94 1008.5
20260506024520 49 284 0.0 0.0 0.12 0.87 0.86 94 1008.8
20260506023119 49 284 0.0 0.0 0.08 0.83 0.82 95 1009.1
20260506021542 49 284 0.0 0.0 0.05 0.78 0.77 94 1008.8
20260506020009 49 284 0.0 0.0 0.04 0.76 0.75 94 1008.6
20260506014608 49 284 0.0 0.0 0.03 0.75 0.74 94 1008.5
20260506013038 49 284 0.0 0.0 0.03 0.75 0.74 94 1008.4
20260506011629 49 284 0.0 0.0 0.02 0.73 0.72 94 1008.2
20260506010100 49 284 0.0 0.0 0.04 0.72 0.71 94 1008.2
20260506004526 49 284 0.0 0.0 0.14 0.72 0.71 94 1008.0
20260506003113 49 284 0.0 0.0 0.20 0.72 0.71 94 1008.0
20260506001527 49 284 0.0 0.0 0.21 0.71 0.70 94 1008.5
20260506000124 49 284 0.0 0.0 0.23 0.68 0.67 94 1008.5
20260505234604 49 284 0.0 0.0 0.19 0.57 0.56 94 1008.8
20260505233009 49 284 0.0 0.0 0.18 0.52 0.51 93 1008.2
20260505231554 49 284 0.0 0.0 0.16 0.50 0.49 94 1008.4
20260505230017 49 284 0.0 0.0 0.12 0.45 0.44 93 1008.2
20260505224613 49 284 0.0 0.0 0.13 0.42 0.38 93 1008.4
20260505223034 50 312 0.0 0.0 0.14 0.37 0.33 93 1008.5
20260505221618 50 312 0.0 0.0 0.16 0.37 0.33 93 1008.0
20260505220056 50 275 0.0 0.0 0.19 0.36 0.32 92 1008.2
20260505214503 51 222 0.0 0.0 0.17 0.28 0.25 92 1008.0
20260505213102 52 279 0.0 0.0 0.14 0.23 0.19 92 1007.9
20260505211511 53 261 0.0 10.0 0.14 0.20 0.16 92 1007.9
20260505210104 55 288 5.0 14.0 0.12 0.16 0.12 92 1007.8
20260505204514 55 240 1.0 8.0 0.08 0.12 0.08 91 1007.3
20260505203112 56 294 1.0 9.0 0.05 0.09 0.05 90 1007.3
20260505201525 57 244 3.0 10.0 0.02 0.06 0.02 88 1007.5
20260505200116 58 225 1.0 7.0 0.00 0.04 0.00 86 1007.3
20260505194546 59 304 2.0 12.0 0.00 0.04 0.00 85 1007.3
20260505193002 60 276 5.0 12.0 0.00 0.04 0.00 81 1007.3
20260505191557 60 278 4.0 14.0 0.00 0.04 0.00 80 1007.2
20260505190010 61 223 6.0 14.0 0.00 0.04 0.00 78 1007.4
20260505184613 61 40 4.0 10.0 0.00 0.04 0.00 79 1007.4
20260505183030 61 237 6.0 16.0 0.00 0.04 0.00 77 1007.4
20260505181621 62 238 5.0 18.0 0.00 0.04 0.00 77 1007.3
20260505180052 62 265 6.0 19.0 0.00 0.04 0.00 76 1007.2
20260505174502 62 204 7.0 17.0 0.00 0.04 0.00 75 1007.2
20260505173048 62 245 4.0 18.0 0.00 0.04 0.00 74 1006.9
20260505171515 63 260 5.0 14.0 0.00 0.04 0.00 72 1006.9
20260505170139 64 263 8.0 17.0 0.00 0.04 0.00 70 1006.8
20260505164532 66 284 0.0 0.0 0.00 0.04 0.00 65 1006.4
20260505163118 68 294 0.0 0.0 0.00 0.04 0.00 62 1006.2
20260505161553 69 284 0.0 0.0 0.00 0.04 0.00 62 1005.9
20260505160136 69 235 0.0 0.0 0.00 0.04 0.00 61 1006.1
20260505153023 67 208 0.0 16.0 0.00 0.04 0.00 65 1005.4
20260505151615 66 275 8.0 17.0 0.00 0.04 0.00 65 1006.0
20260505140116 65 200 0.0 0.0 0.00 0.04 0.00 69 1005.1
20260505124617 64 295 3.0 17.0 0.00 0.04 0.00 69 1004.9
20260505123053 64 234 5.0 14.0 0.00 0.04 0.00 67 1004.4
20260505121636 65 172 2.0 10.0 0.00 0.04 0.00 65 1004.3
20260505114525 65 213 3.0 7.0 0.00 0.04 0.00 66 1004.3
20260505113115 65 239 4.0 10.0 0.00 0.04 0.00 67 1004.3
20260505111549 64 225 4.0 14.0 0.00 0.04 0.00 68 1003.9
20260505110130 63 191 2.0 8.0 0.00 0.04 0.00 70 1003.7
20260505101613 64 236 1.0 10.0 0.00 0.04 0.00 69 1003.2
20260505100036 64 248 3.0 12.0 0.00 0.04 0.00 69 1002.9
20260505094634 64 244 1.0 7.0 0.00 0.04 0.00 68 1002.7
20260505093049 65 251 0.0 8.0 0.00 0.04 0.00 66 1002.7
20260505091520 66 223 1.0 12.0 0.00 0.04 0.00 65 1002.6
20260505090111 66 198 3.0 11.0 0.00 0.04 0.00 64 1002.6
20260505084535 66 173 3.0 15.0 0.00 0.04 0.00 64 1002.7
20260505083127 66 266 3.0 10.0 0.00 0.04 0.00 63 1002.6
20260505081558 67 235 4.0 10.0 0.00 0.04 0.00 62 1002.4
20260505080030 67 230 6.0 17.0 0.00 0.04 0.00 62 1002.2
20260505074615 67 190 4.0 15.0 0.00 0.04 0.00 62 1002.2
20260505073036 66 243 5.0 18.0 0.00 0.04 0.00 65 1001.9
20260505071629 64 255 2.0 10.0 0.00 0.04 0.00 70 1002.1
20260505070051 64 126 2.0 14.0 0.00 0.04 0.00 73 1002.2
20260505064634 63 85 1.0 9.0 0.00 0.04 0.00 73 1002.3
20260505063055 63 202 3.0 8.0 0.00 0.04 0.00 73 1002.5
20260505061506 63 218 2.0 7.0 0.00 0.04 0.00 74 1002.7
20260505060103 63 252 1.0 8.0 0.00 0.04 0.00 74 1003.0
20260505054526 63 174 1.0 8.0 0.00 0.04 0.00 73 1003.2
20260505053116 64 84 1.0 11.0 0.00 0.04 0.00 73 1003.4
20260505051523 64 148 2.0 11.0 0.00 0.04 0.00 71 1003.7
20260505050115 65 200 4.0 11.0 0.00 0.04 0.00 68 1003.8